Jaipur, India

5:36 PM IST on September 25, 2017 (GMT +0530)
Jaipur

Weather History for VIJP - March, 2014

Change the Weather History Date:

Friday, March 28, 2014

  Actual Average Record
Temperature  
Mean Temperature 83 °F -  
Max Temperature 95 °F - - ()
Min Temperature 71 °F - - ()
Cooling Degree Days 18    
Growing Degree Days 33 (Base 50)    
Moisture  
Dew Point 55 °F    
Average Humidity 41    
Maximum Humidity 61    
Minimum Humidity 11    
Precipitation  
Precipitation 0.00 in - - ()
Sea Level Pressure  
Sea Level Pressure 29.88 in    
Wind  
Wind Speed 6 mph ()    
Max Wind Speed 13 mph    
Max Gust Speed -    
Visibility 2.0 miles    
Events      
T = Trace of Precipitation, MM = Missing Value Source: Averaged Metar Reports

Daily Weather History Graph

Daily Weather History Graph

Search for Another Location

Airport or City:

Trip Planner

Search our weather history database for the weather conditions in past years. The results will help you decide how hot, cold, wet, or windy it might be!

Date:

Astronomy

Mar. 28, 2014 Rise Set
Actual Time 6:22 AM IST 6:41 PM IST
Civil Twilight 5:59 AM IST 7:05 PM IST
Nautical Twilight 5:32 AM IST 7:32 PM IST
Astronomical Twilight 5:04 AM IST 7:59 PM IST
Moon 4:20 AM IST (3/28) 4:19 PM IST (3/28)
Length of Visible Light 13h 05m
Length of Day
12h 19m
Waning Crescent, 8% of the Moon is Illuminated
Mar 28
Waning Crescent
Mar 31
New
Apr 7
First Quarter
Apr 15
Full
Apr 22
Last Quarter

Hourly Weather History & Observations

Time (IST) Temp. Heat Index Dew Point Humidity Pressure Visibility Wind Dir Wind Speed Gust Speed Precip Events Conditions
12:00 AM 77.0 °F - 59.0 °F 54% 29.92 in 1.9 mi East 8.1 mph - N/A   Haze
1:00 AM 77.0 °F - 57.2 °F 50% 29.92 in 1.9 mi East 5.8 mph - N/A   Haze
2:00 AM 75.2 °F - 59.0 °F 57% 29.89 in 1.9 mi East 6.9 mph - N/A   Haze
2:30 AM 75 °F - 59 °F 47% 29.83 in 1 mi East 6.9 mph - -   Haze
3:00 AM 75.2 °F - 59.0 °F 57% 29.86 in 1.9 mi East 6.9 mph - N/A   Haze
4:00 AM 73.4 °F - 59.0 °F 61% 29.89 in 1.9 mi Calm Calm - N/A   Haze
5:00 AM 73.4 °F - 59.0 °F 61% 29.89 in 1.9 mi East 3.5 mph - N/A   Haze
5:30 AM 74 °F - 58 °F 47% 29.83 in 1 mi East 2.3 mph - -   Haze
6:00 AM 73.4 °F - 59.0 °F 61% 29.89 in 1.9 mi East 5.8 mph - N/A   Haze
7:00 AM 73.4 °F - 59.0 °F 61% 29.92 in 1.9 mi East 5.8 mph - N/A   Haze
8:00 AM 75.2 °F - 55.4 °F 50% 29.95 in 1.9 mi East 8.1 mph - N/A   Haze
8:30 AM 75 °F - 57 °F 43% 29.88 in 1 mi East 6.9 mph - -   Haze
9:00 AM 77.0 °F - 51.8 °F 41% 29.95 in 1.9 mi ESE 12.7 mph - N/A   Haze
10:00 AM 80.6 °F - 51.8 °F 37% 29.98 in 1.9 mi ESE 9.2 mph - N/A   Haze
10:30 AM 80.6 °F - 51.8 °F 37% 29.98 in 2.5 mi ESE 9.2 mph - N/A   Haze
11:00 AM 82.4 °F - 51.8 °F 35% 29.95 in 2.5 mi SE 11.5 mph - N/A   Scattered Clouds
11:30 AM 84 °F - 56 °F 29% 29.89 in 2 mi SE 6.9 mph - -   Haze
12:00 PM 86.0 °F 84.5 °F 55.4 °F 35% 29.95 in 2.5 mi SSE 8.1 mph - N/A   Haze
1:00 PM 87.8 °F 86.1 °F 55.4 °F 33% 29.92 in 2.5 mi SSE 9.2 mph - N/A   Haze
2:00 PM 89.6 °F 87.3 °F 53.6 °F 29% 29.89 in 2.5 mi Variable 6.9 mph - N/A   Haze
2:30 PM 91 °F - 54 °F 19% 29.78 in 2 mi South 6.9 mph - -   Haze
3:00 PM 91.4 °F - 51.8 °F 26% 29.86 in 2.5 mi Variable 3.5 mph - N/A   Haze
4:00 PM 93.2 °F - 46.4 °F 20% 29.83 in 2.5 mi Variable 9.2 mph - N/A   Haze
5:30 PM 93 °F - 46 °F 11% 29.71 in 2 mi SW 9.2 mph - -   Haze
6:00 PM 93.2 °F - 44.6 °F 19% 29.80 in 2.5 mi West 11.5 mph - N/A   Haze
7:00 PM 89.6 °F - 48.2 °F 24% 29.83 in 2.5 mi Variable 3.5 mph - N/A   Haze
8:00 PM 84.2 °F - 51.8 °F 33% 29.86 in 1.9 mi ENE 3.5 mph - N/A   Haze
8:30 PM 83 °F - 53 °F 25% 29.77 in 2 mi NE 5.8 mph - -   Haze
9:00 PM 78.8 °F - 59.0 °F 51% 29.89 in 1.9 mi NE 6.9 mph - N/A   Haze
10:00 PM 75.2 °F - 59.0 °F 57% 29.92 in 1.9 mi NE 10.4 mph - N/A   Haze
11:00 PM 75.2 °F - 59.0 °F 57% 29.92 in 1.9 mi NE 9.2 mph - N/A   Haze
11:30 PM 75 °F - 60 °F 51% 29.86 in 1 mi ENE 10.4 mph - -   Haze